Year,Month,Day,Hour,Minute,Value (Times are PST for temperature in C)
2009,04,24,00,00,6.20
2009,04,24,00,01,6.20
2009,04,24,00,02,6.20
2009,04,24,00,03,6.20
2009,04,24,00,04,6.20
2009,04,24,00,05,6.20
2009,04,24,00,06,6.20
2009,04,24,00,07,6.20
2009,04,24,00,08,6.20
2009,04,24,00,09,6.20
2009,04,24,00,10,6.20
2009,04,24,00,11,6.20
2009,04,24,00,12,6.20
2009,04,24,00,13,6.20
2009,04,24,00,14,6.20
2009,04,24,00,15,6.20
2009,04,24,00,16,6.10
2009,04,24,00,17,6.10
2009,04,24,00,18,6.10
2009,04,24,00,19,6.10
2009,04,24,00,20,6.10
2009,04,24,00,21,6.10
2009,04,24,00,22,6.10
2009,04,24,00,23,6.10
2009,04,24,00,24,6.00
2009,04,24,00,25,6.00
2009,04,24,00,26,6.00
2009,04,24,00,27,6.00
2009,04,24,00,28,6.00
2009,04,24,00,29,6.00
2009,04,24,00,30,6.00
2009,04,24,00,31,6.00
2009,04,24,00,32,6.00
2009,04,24,00,33,6.00
2009,04,24,00,34,6.00
2009,04,24,00,35,6.00
2009,04,24,00,36,5.90
2009,04,24,00,37,5.90
2009,04,24,00,38,6.00
2009,04,24,00,39,5.90
2009,04,24,00,40,6.00
2009,04,24,00,41,6.00
2009,04,24,00,42,6.00
2009,04,24,00,43,6.00
2009,04,24,00,44,6.00
2009,04,24,00,45,6.00
2009,04,24,00,46,6.00
2009,04,24,00,47,6.00
2009,04,24,00,48,6.00
2009,04,24,00,49,6.00
2009,04,24,00,50,6.00
2009,04,24,00,51,5.90
2009,04,24,00,52,5.90
2009,04,24,00,53,5.90
2009,04,24,00,54,5.80
2009,04,24,00,55,5.80
2009,04,24,00,56,5.80
2009,04,24,00,57,5.70
2009,04,24,00,58,5.70
2009,04,24,00,59,5.70
2009,04,24,01,00,5.70
2009,04,24,01,01,5.70
2009,04,24,01,02,5.70
2009,04,24,01,03,5.60
2009,04,24,01,04,5.60
2009,04,24,01,05,5.50
2009,04,24,01,06,5.50
2009,04,24,01,07,5.40
2009,04,24,01,08,5.30
2009,04,24,01,09,5.30
2009,04,24,01,10,5.30
2009,04,24,01,11,5.30
2009,04,24,01,12,5.30
2009,04,24,01,13,5.30
2009,04,24,01,14,5.20
2009,04,24,01,15,5.20
2009,04,24,01,16,5.20
2009,04,24,01,17,5.20
2009,04,24,01,18,5.10
2009,04,24,01,19,5.10
2009,04,24,01,20,5.10
2009,04,24,01,21,5.10
2009,04,24,01,22,5.10
2009,04,24,01,23,5.00
2009,04,24,01,24,4.90
2009,04,24,01,25,4.90
2009,04,24,01,26,4.90
2009,04,24,01,27,4.90
2009,04,24,01,28,4.90
2009,04,24,01,29,4.90
2009,04,24,01,30,4.90
2009,04,24,01,31,4.90
2009,04,24,01,32,4.90
2009,04,24,01,33,4.90
2009,04,24,01,34,4.90
2009,04,24,01,35,4.90
2009,04,24,01,36,4.90
2009,04,24,01,37,4.80
2009,04,24,01,38,4.80
2009,04,24,01,39,4.80
2009,04,24,01,40,4.80
2009,04,24,01,41,4.80
2009,04,24,01,42,4.70
2009,04,24,01,43,4.70
2009,04,24,01,44,4.70
2009,04,24,01,45,4.70
2009,04,24,01,46,4.70
2009,04,24,01,47,4.70
2009,04,24,01,48,4.70
2009,04,24,01,49,4.70
2009,04,24,01,50,4.70
2009,04,24,01,51,4.70
2009,04,24,01,52,4.60
2009,04,24,01,53,4.60
2009,04,24,01,54,4.60
2009,04,24,01,55,4.50
2009,04,24,01,56,4.50
2009,04,24,01,57,4.50
2009,04,24,01,58,4.40
2009,04,24,01,59,4.40
2009,04,24,02,00,4.40
2009,04,24,02,01,4.40
2009,04,24,02,02,4.30
2009,04,24,02,03,4.30
2009,04,24,02,04,4.30
2009,04,24,02,05,4.30
2009,04,24,02,06,4.30
2009,04,24,02,07,4.30
2009,04,24,02,08,4.30
2009,04,24,02,09,4.40
2009,04,24,02,10,4.40
2009,04,24,02,11,4.40
2009,04,24,02,12,4.40
2009,04,24,02,13,4.40
2009,04,24,02,14,4.40
2009,04,24,02,15,4.40
2009,04,24,02,16,4.40
2009,04,24,02,17,4.40
2009,04,24,02,18,4.40
2009,04,24,02,19,4.40
2009,04,24,02,20,4.40
2009,04,24,02,21,4.40
2009,04,24,02,22,4.40
2009,04,24,02,23,4.40
2009,04,24,02,24,4.40
2009,04,24,02,25,4.40
2009,04,24,02,26,4.40
2009,04,24,02,27,4.40
2009,04,24,02,28,4.40
2009,04,24,02,29,4.40
2009,04,24,02,30,4.40
2009,04,24,02,31,4.40
2009,04,24,02,32,4.40
2009,04,24,02,33,4.40
2009,04,24,02,34,4.30
2009,04,24,02,35,4.30
2009,04,24,02,36,4.30
2009,04,24,02,37,4.30
2009,04,24,02,38,4.30
2009,04,24,02,39,4.20
2009,04,24,02,40,4.20
2009,04,24,02,41,4.20
2009,04,24,02,42,4.20
2009,04,24,02,43,4.20
2009,04,24,02,44,4.20
2009,04,24,02,45,4.20
2009,04,24,02,46,4.10
2009,04,24,02,47,4.10
2009,04,24,02,48,4.10
2009,04,24,02,49,4.00
2009,04,24,02,50,4.00
2009,04,24,02,51,4.00
2009,04,24,02,52,4.00
2009,04,24,02,53,4.00
2009,04,24,02,54,4.00
2009,04,24,02,55,4.00
2009,04,24,02,56,4.00
2009,04,24,02,57,4.00
2009,04,24,02,58,4.00
2009,04,24,02,59,4.00
2009,04,24,03,00,4.00
2009,04,24,03,01,4.00
2009,04,24,03,02,4.00
2009,04,24,03,03,4.00
2009,04,24,03,04,4.00
2009,04,24,03,05,4.00
2009,04,24,03,06,3.90
2009,04,24,03,07,3.90
2009,04,24,03,08,3.90
2009,04,24,03,09,3.90
2009,04,24,03,10,3.80
2009,04,24,03,11,3.80
2009,04,24,03,12,3.80
2009,04,24,03,13,3.80
2009,04,24,03,14,3.80
2009,04,24,03,15,3.80
2009,04,24,03,16,3.80
2009,04,24,03,17,3.80
2009,04,24,03,18,3.80
2009,04,24,03,19,3.80
2009,04,24,03,20,3.80
2009,04,24,03,21,3.80
2009,04,24,03,22,3.80
2009,04,24,03,23,3.80
2009,04,24,03,24,3.70
2009,04,24,03,25,3.70
2009,04,24,03,26,3.70
2009,04,24,03,27,3.70
2009,04,24,03,28,3.70
2009,04,24,03,29,3.70
2009,04,24,03,30,3.80
2009,04,24,03,31,3.80
2009,04,24,03,32,3.80
2009,04,24,03,33,3.80
2009,04,24,03,34,3.80
2009,04,24,03,35,3.80
2009,04,24,03,36,3.80
2009,04,24,03,37,3.70
2009,04,24,03,38,3.70
2009,04,24,03,39,3.70
2009,04,24,03,40,3.70
2009,04,24,03,41,3.70
2009,04,24,03,42,3.80
2009,04,24,03,43,3.80
2009,04,24,03,44,3.80
2009,04,24,03,45,3.80
2009,04,24,03,46,3.80
2009,04,24,03,47,3.80
2009,04,24,03,48,3.70
2009,04,24,03,49,3.80
2009,04,24,03,50,3.80
2009,04,24,03,51,3.80
2009,04,24,03,52,3.90
2009,04,24,03,53,3.90
2009,04,24,03,54,3.90
2009,04,24,03,55,3.90
2009,04,24,03,56,3.90
2009,04,24,03,57,3.90
2009,04,24,03,58,3.90
2009,04,24,03,59,3.90
2009,04,24,04,00,3.90
2009,04,24,04,01,3.80
2009,04,24,04,02,3.80
2009,04,24,04,03,3.80
2009,04,24,04,04,3.70
2009,04,24,04,05,3.60
2009,04,24,04,06,3.60
2009,04,24,04,07,3.60
2009,04,24,04,08,3.50
2009,04,24,04,09,3.50
2009,04,24,04,10,3.50
2009,04,24,04,11,3.40
2009,04,24,04,12,3.40
2009,04,24,04,13,3.30
2009,04,24,04,14,3.30
2009,04,24,04,15,3.30
2009,04,24,04,16,3.30
2009,04,24,04,17,3.30
2009,04,24,04,18,3.30
2009,04,24,04,19,3.30
2009,04,24,04,20,3.30
2009,04,24,04,21,3.20
2009,04,24,04,22,3.20
2009,04,24,04,23,3.10
2009,04,24,04,24,3.10
2009,04,24,04,25,3.10
2009,04,24,04,26,3.10
2009,04,24,04,27,3.10
2009,04,24,04,28,2.90
2009,04,24,04,29,3.00
2009,04,24,04,30,3.10
2009,04,24,04,31,3.10
2009,04,24,04,32,3.10
2009,04,24,04,33,3.10
2009,04,24,04,34,3.10
2009,04,24,04,35,3.10
2009,04,24,04,36,3.10
2009,04,24,04,37,3.10
2009,04,24,04,38,3.10
2009,04,24,04,39,3.10
2009,04,24,04,40,3.10
2009,04,24,04,41,3.10
2009,04,24,04,42,3.10
2009,04,24,04,43,3.10
2009,04,24,04,44,3.20
2009,04,24,04,45,3.20
2009,04,24,04,46,3.20
2009,04,24,04,47,3.20
2009,04,24,04,48,3.20
2009,04,24,04,49,3.10
2009,04,24,04,50,3.10
2009,04,24,04,51,3.10
2009,04,24,04,52,3.10
2009,04,24,04,53,3.10
2009,04,24,04,54,3.00
2009,04,24,04,55,2.90
2009,04,24,04,56,2.90
2009,04,24,04,57,2.90
2009,04,24,04,58,2.90
2009,04,24,04,59,2.90
2009,04,24,05,00,3.00
2009,04,24,05,01,3.10
2009,04,24,05,02,3.10
2009,04,24,05,03,3.10
2009,04,24,05,04,3.10
2009,04,24,05,05,3.10
2009,04,24,05,06,3.20
2009,04,24,05,07,3.20
2009,04,24,05,08,3.20
2009,04,24,05,09,3.20
2009,04,24,05,10,3.20
2009,04,24,05,11,3.20
2009,04,24,05,12,3.20
2009,04,24,05,13,3.20
2009,04,24,05,14,3.10
2009,04,24,05,15,3.10
2009,04,24,05,16,3.10
2009,04,24,05,17,3.10
2009,04,24,05,18,3.10
2009,04,24,05,19,3.10
2009,04,24,05,20,3.10
2009,04,24,05,21,3.10
2009,04,24,05,22,3.00
2009,04,24,05,23,2.90
2009,04,24,05,24,2.90
2009,04,24,05,25,2.80
2009,04,24,05,26,2.70
2009,04,24,05,27,2.60
2009,04,24,05,28,2.50
2009,04,24,05,29,2.40
2009,04,24,05,30,2.30
2009,04,24,05,31,2.30
2009,04,24,05,32,2.20
2009,04,24,05,33,2.20
2009,04,24,05,34,2.20
2009,04,24,05,35,2.10
2009,04,24,05,36,2.10
2009,04,24,05,37,2.10
2009,04,24,05,38,2.20
2009,04,24,05,39,2.20
2009,04,24,05,40,2.20
2009,04,24,05,41,2.20
2009,04,24,05,42,2.30
2009,04,24,05,43,2.30
2009,04,24,05,44,2.30
2009,04,24,05,45,2.30
2009,04,24,05,46,2.40
2009,04,24,05,47,2.40
2009,04,24,05,48,2.50
2009,04,24,05,49,2.60
2009,04,24,05,50,2.60
2009,04,24,05,51,2.70
2009,04,24,05,52,2.70
2009,04,24,05,53,2.80
2009,04,24,05,54,2.80
2009,04,24,05,55,2.80
2009,04,24,05,56,2.80
2009,04,24,05,57,2.80
2009,04,24,05,58,2.80
2009,04,24,05,59,2.70
2009,04,24,06,00,2.70
2009,04,24,06,01,2.70
2009,04,24,06,02,2.60
2009,04,24,06,03,2.50
2009,04,24,06,04,2.50
2009,04,24,06,05,2.40
2009,04,24,06,06,2.30
2009,04,24,06,07,2.30
2009,04,24,06,08,2.20
2009,04,24,06,09,2.20
2009,04,24,06,10,2.20
2009,04,24,06,11,2.10
2009,04,24,06,12,2.10
2009,04,24,06,13,2.10
2009,04,24,06,14,2.00
2009,04,24,06,15,2.00
2009,04,24,06,16,2.00
2009,04,24,06,17,2.00
2009,04,24,06,18,2.00
2009,04,24,06,19,2.00
2009,04,24,06,20,2.00
2009,04,24,06,21,1.90
2009,04,24,06,22,1.90
2009,04,24,06,23,1.90
2009,04,24,06,24,1.90
2009,04,24,06,25,1.90
2009,04,24,06,26,1.90
2009,04,24,06,27,1.90
2009,04,24,06,28,1.90
2009,04,24,06,29,2.00
2009,04,24,06,30,2.00
2009,04,24,06,31,2.00
2009,04,24,06,32,2.00
2009,04,24,06,33,2.00
2009,04,24,06,34,2.00
2009,04,24,06,35,2.00
2009,04,24,06,36,1.90
2009,04,24,06,37,1.90
2009,04,24,06,38,1.90
2009,04,24,06,39,1.90
2009,04,24,06,40,1.90
2009,04,24,06,41,2.00
2009,04,24,06,42,2.00
2009,04,24,06,43,2.00
2009,04,24,06,44,2.00
2009,04,24,06,45,2.00
2009,04,24,06,46,2.10
2009,04,24,06,47,2.10
2009,04,24,06,48,2.20
2009,04,24,06,49,2.30
2009,04,24,06,50,2.40
2009,04,24,06,51,2.50
2009,04,24,06,52,2.50
2009,04,24,06,53,2.60
2009,04,24,06,54,2.70
2009,04,24,06,55,2.70
2009,04,24,06,56,2.80
2009,04,24,06,57,2.80
2009,04,24,06,58,2.90
2009,04,24,06,59,3.00
2009,04,24,07,00,3.10
2009,04,24,07,01,3.10
2009,04,24,07,02,3.20
2009,04,24,07,03,3.20
2009,04,24,07,04,3.40
2009,04,24,07,05,3.50
2009,04,24,07,06,3.60
2009,04,24,07,07,3.80
2009,04,24,07,08,3.80
2009,04,24,07,09,4.00
2009,04,24,07,10,4.10
2009,04,24,07,11,4.20
2009,04,24,07,12,4.30
2009,04,24,07,13,4.40
2009,04,24,07,14,4.50
2009,04,24,07,15,4.60
2009,04,24,07,16,4.60
2009,04,24,07,17,4.60
2009,04,24,07,18,4.60
2009,04,24,07,19,4.70
2009,04,24,07,20,4.70
2009,04,24,07,21,4.70
2009,04,24,07,22,4.80
2009,04,24,07,23,4.90
2009,04,24,07,24,5.00
2009,04,24,07,25,5.10
2009,04,24,07,26,5.30
2009,04,24,07,27,5.60
2009,04,24,07,28,5.70
2009,04,24,07,29,6.00
2009,04,24,07,30,6.10
2009,04,24,07,31,6.20
2009,04,24,07,32,6.30
2009,04,24,07,33,6.40
2009,04,24,07,34,6.40
2009,04,24,07,35,6.40
2009,04,24,07,36,6.40
2009,04,24,07,37,6.40
2009,04,24,07,38,6.30
2009,04,24,07,39,6.30
2009,04,24,07,40,6.30
2009,04,24,07,41,6.30
2009,04,24,07,42,6.20
2009,04,24,07,43,6.20
2009,04,24,07,44,6.20
2009,04,24,07,45,6.20
2009,04,24,07,46,6.20
2009,04,24,07,47,6.30
2009,04,24,07,48,6.30
2009,04,24,07,49,6.30
2009,04,24,07,50,6.40
2009,04,24,07,51,6.40
2009,04,24,07,52,6.40
2009,04,24,07,53,6.50
2009,04,24,07,54,6.60
2009,04,24,07,55,6.60
2009,04,24,07,56,6.70
2009,04,24,07,57,6.70
2009,04,24,07,58,6.70
2009,04,24,07,59,6.70
2009,04,24,08,00,6.80
2009,04,24,08,01,6.80
2009,04,24,08,02,6.80
2009,04,24,08,03,6.80
2009,04,24,08,04,6.80
2009,04,24,08,05,6.80
2009,04,24,08,06,6.90
2009,04,24,08,07,6.90
2009,04,24,08,08,6.90
2009,04,24,08,09,7.00
2009,04,24,08,10,7.00
2009,04,24,08,11,7.00
2009,04,24,08,12,7.10
2009,04,24,08,13,7.10
2009,04,24,08,14,7.10
2009,04,24,08,15,7.10
2009,04,24,08,16,7.10
2009,04,24,08,17,7.10
2009,04,24,08,18,7.10
2009,04,24,08,19,7.10
2009,04,24,08,20,7.10
2009,04,24,08,21,7.10
2009,04,24,08,22,7.10
2009,04,24,08,23,7.10
2009,04,24,08,24,7.10
2009,04,24,08,25,7.10
2009,04,24,08,26,7.10
2009,04,24,08,27,7.10
2009,04,24,08,28,7.10
2009,04,24,08,29,7.10
2009,04,24,08,30,7.20
2009,04,24,08,31,7.20
2009,04,24,08,32,7.30
2009,04,24,08,33,7.30
2009,04,24,08,34,7.30
2009,04,24,08,35,7.30
2009,04,24,08,36,7.30
2009,04,24,08,37,7.40
2009,04,24,08,38,7.40
2009,04,24,08,39,7.40
2009,04,24,08,40,7.40
2009,04,24,08,41,7.40
2009,04,24,08,42,7.50
2009,04,24,08,43,7.60
2009,04,24,08,44,7.70
2009,04,24,08,45,7.80
2009,04,24,08,46,7.90
2009,04,24,08,47,8.00
2009,04,24,08,48,8.10
2009,04,24,08,49,8.20
2009,04,24,08,50,8.30
2009,04,24,08,51,8.40
2009,04,24,08,52,8.40
2009,04,24,08,53,8.40
2009,04,24,08,54,8.40
2009,04,24,08,55,8.50
2009,04,24,08,56,8.50
2009,04,24,08,57,8.40
2009,04,24,08,58,8.40
2009,04,24,08,59,8.50
2009,04,24,09,00,8.60
2009,04,24,09,01,8.70
2009,04,24,09,02,8.70
2009,04,24,09,03,8.70
2009,04,24,09,04,8.70
2009,04,24,09,05,8.80
2009,04,24,09,06,8.90
2009,04,24,09,07,8.90
2009,04,24,09,08,9.00
2009,04,24,09,09,8.90
2009,04,24,09,10,8.90
2009,04,24,09,11,8.90
2009,04,24,09,12,8.90
2009,04,24,09,13,9.00
2009,04,24,09,14,8.90
2009,04,24,09,15,9.00
2009,04,24,09,16,9.00
2009,04,24,09,17,9.00
2009,04,24,09,18,8.90
2009,04,24,09,19,8.90
2009,04,24,09,20,8.90
2009,04,24,09,21,8.90
2009,04,24,09,22,8.90
2009,04,24,09,23,8.90
2009,04,24,09,24,8.90
2009,04,24,09,25,8.90
2009,04,24,09,26,8.90
2009,04,24,09,27,9.00
2009,04,24,09,28,9.00
2009,04,24,09,29,9.10
2009,04,24,09,30,9.20
2009,04,24,09,31,9.20
2009,04,24,09,32,9.20
2009,04,24,09,33,9.30
2009,04,24,09,34,9.40
2009,04,24,09,35,9.40
2009,04,24,09,36,9.40
2009,04,24,09,37,9.40
2009,04,24,09,38,9.50
2009,04,24,09,39,9.50
2009,04,24,09,40,9.30
2009,04,24,09,41,9.20
2009,04,24,09,42,9.20
2009,04,24,09,43,9.20
2009,04,24,09,44,9.20
2009,04,24,09,45,9.00
2009,04,24,09,46,8.80
2009,04,24,09,47,8.70
2009,04,24,09,48,8.70
2009,04,24,09,49,8.70
2009,04,24,09,50,8.90
2009,04,24,09,51,8.90
2009,04,24,09,52,8.90
2009,04,24,09,53,8.90
2009,04,24,09,54,8.80
2009,04,24,09,55,8.80
2009,04,24,09,56,8.90
2009,04,24,09,57,8.80
2009,04,24,09,58,8.70
2009,04,24,09,59,8.70
2009,04,24,10,00,8.80
2009,04,24,10,01,8.90
2009,04,24,10,02,8.90
2009,04,24,10,03,8.90
2009,04,24,10,04,8.80
2009,04,24,10,05,8.90
2009,04,24,10,06,9.00
2009,04,24,10,07,9.10
2009,04,24,10,08,9.20
2009,04,24,10,09,9.10
2009,04,24,10,10,9.00
2009,04,24,10,11,9.00
2009,04,24,10,12,9.00
2009,04,24,10,13,8.90
2009,04,24,10,14,8.90
2009,04,24,10,15,8.90
2009,04,24,10,16,8.90
2009,04,24,10,17,8.90
2009,04,24,10,18,8.90
2009,04,24,10,19,8.90
2009,04,24,10,20,8.90
2009,04,24,10,21,9.00
2009,04,24,10,22,9.10
2009,04,24,10,23,9.20
2009,04,24,10,24,9.30
2009,04,24,10,25,9.40
2009,04,24,10,26,9.40
2009,04,24,10,27,9.40
2009,04,24,10,28,9.30
2009,04,24,10,29,9.20
2009,04,24,10,30,9.20
2009,04,24,10,31,9.20
2009,04,24,10,32,9.20
2009,04,24,10,33,9.10
2009,04,24,10,34,9.00
2009,04,24,10,35,9.00
2009,04,24,10,36,9.00
2009,04,24,10,37,9.10
2009,04,24,10,38,9.20
2009,04,24,10,39,9.20
2009,04,24,10,40,9.30
2009,04,24,10,41,9.30
2009,04,24,10,42,9.30
2009,04,24,10,43,9.30
2009,04,24,10,44,9.40
2009,04,24,10,45,9.30
2009,04,24,10,46,9.30
2009,04,24,10,47,9.20
2009,04,24,10,48,9.40
2009,04,24,10,49,9.50
2009,04,24,10,50,9.60
2009,04,24,10,51,9.60
2009,04,24,10,52,9.60
2009,04,24,10,53,9.60
2009,04,24,10,54,9.60
2009,04,24,10,55,9.60
2009,04,24,10,56,9.60
2009,04,24,10,57,9.50
2009,04,24,10,58,9.50
2009,04,24,10,59,9.40
2009,04,24,11,00,9.50
2009,04,24,11,01,9.50
2009,04,24,11,02,9.60
2009,04,24,11,03,9.40
2009,04,24,11,04,9.30
2009,04,24,11,05,9.20
2009,04,24,11,06,9.20
2009,04,24,11,07,9.20
2009,04,24,11,08,9.40
2009,04,24,11,09,9.40
2009,04,24,11,10,9.40
2009,04,24,11,11,9.40
2009,04,24,11,12,9.50
2009,04,24,11,13,9.70
2009,04,24,11,14,9.80
2009,04,24,11,15,9.80
2009,04,24,11,16,9.80
2009,04,24,11,17,9.80
2009,04,24,11,18,9.60
2009,04,24,11,19,9.60
2009,04,24,11,20,9.50
2009,04,24,11,21,9.50
2009,04,24,11,22,9.50
2009,04,24,11,23,9.60
2009,04,24,11,24,9.60
2009,04,24,11,25,9.60
2009,04,24,11,26,9.50
2009,04,24,11,27,9.50
2009,04,24,11,28,9.50
2009,04,24,11,29,9.40
2009,04,24,11,30,9.50
2009,04,24,11,31,9.50
2009,04,24,11,32,9.50
2009,04,24,11,33,9.40
2009,04,24,11,34,9.50
2009,04,24,11,35,9.50
2009,04,24,11,36,9.50
2009,04,24,11,37,9.60
2009,04,24,11,38,9.60
2009,04,24,11,39,9.60
2009,04,24,11,40,9.60
2009,04,24,11,41,9.50
2009,04,24,11,42,9.60
2009,04,24,11,43,9.70
2009,04,24,11,44,9.70
2009,04,24,11,45,9.70
2009,04,24,11,46,9.70
2009,04,24,11,47,9.60
2009,04,24,11,48,9.60
2009,04,24,11,49,9.70
2009,04,24,11,50,9.60
2009,04,24,11,51,9.60
2009,04,24,11,52,9.60
2009,04,24,11,53,9.70
2009,04,24,11,54,9.70
2009,04,24,11,55,9.70
2009,04,24,11,56,9.80
2009,04,24,11,57,9.90
2009,04,24,11,58,10.00
2009,04,24,11,59,10.10
2009,04,24,12,00,10.10
2009,04,24,12,01,10.10
2009,04,24,12,02,9.90
2009,04,24,12,03,9.70
2009,04,24,12,04,9.60
2009,04,24,12,05,9.40
2009,04,24,12,06,9.30
2009,04,24,12,07,9.30
2009,04,24,12,08,9.40
2009,04,24,12,09,9.40
2009,04,24,12,10,9.50
2009,04,24,12,11,9.60
2009,04,24,12,12,9.70
2009,04,24,12,13,9.70
2009,04,24,12,14,9.70
2009,04,24,12,15,9.70
2009,04,24,12,16,9.70
2009,04,24,12,17,9.70
2009,04,24,12,18,9.60
2009,04,24,12,19,9.60
2009,04,24,12,20,9.60
2009,04,24,12,21,9.60
2009,04,24,12,22,9.70
2009,04,24,12,23,9.90
2009,04,24,12,24,10.10
2009,04,24,12,25,10.10
2009,04,24,12,26,10.00
2009,04,24,12,27,9.90
2009,04,24,12,28,9.70
2009,04,24,12,29,9.70
2009,04,24,12,30,9.70
2009,04,24,12,31,9.70
2009,04,24,12,32,9.70
2009,04,24,12,33,9.70
2009,04,24,12,34,9.60
2009,04,24,12,35,9.60
2009,04,24,12,36,9.50
2009,04,24,12,37,9.50
2009,04,24,12,38,9.40
2009,04,24,12,39,9.40
2009,04,24,12,40,9.30
2009,04,24,12,41,9.30
2009,04,24,12,42,9.30
2009,04,24,12,43,9.30
2009,04,24,12,44,9.40
2009,04,24,12,45,9.50
2009,04,24,12,46,9.60
2009,04,24,12,47,9.60
2009,04,24,12,48,9.70
2009,04,24,12,49,9.70
2009,04,24,12,50,9.60
2009,04,24,12,51,9.40
2009,04,24,12,52,9.40
2009,04,24,12,53,9.20
2009,04,24,12,54,9.20
2009,04,24,12,55,9.20
2009,04,24,12,56,9.30
2009,04,24,12,57,9.30
2009,04,24,12,58,9.40
2009,04,24,12,59,9.40
2009,04,24,13,00,9.40
2009,04,24,13,01,9.40
2009,04,24,13,02,9.50
2009,04,24,13,03,9.50
2009,04,24,13,04,9.50
2009,04,24,13,05,9.30
2009,04,24,13,06,9.30
2009,04,24,13,07,9.30
2009,04,24,13,08,9.40
2009,04,24,13,09,9.30
2009,04,24,13,10,9.20
2009,04,24,13,11,9.20
2009,04,24,13,12,9.20
2009,04,24,13,13,9.20
2009,04,24,13,14,9.30
2009,04,24,13,15,9.40
2009,04,24,13,16,9.50
2009,04,24,13,17,9.40
2009,04,24,13,18,9.30
2009,04,24,13,19,9.30
2009,04,24,13,20,9.20
2009,04,24,13,21,9.10
2009,04,24,13,22,9.10
2009,04,24,13,23,9.20
2009,04,24,13,24,9.20
2009,04,24,13,25,9.10
2009,04,24,13,26,9.10
2009,04,24,13,27,9.10
2009,04,24,13,28,9.20
2009,04,24,13,29,9.20
2009,04,24,13,30,9.20
2009,04,24,13,31,9.30
2009,04,24,13,32,9.40
2009,04,24,13,33,9.40
2009,04,24,13,34,9.60
2009,04,24,13,35,9.70
2009,04,24,13,36,9.70
2009,04,24,13,37,9.70
2009,04,24,13,38,9.70
2009,04,24,13,39,9.70
2009,04,24,13,40,9.60
2009,04,24,13,41,9.50
2009,04,24,13,42,9.50
2009,04,24,13,43,9.50
2009,04,24,13,44,9.40
2009,04,24,13,45,9.50
2009,04,24,13,46,9.50
2009,04,24,13,47,9.60
2009,04,24,13,48,9.50
2009,04,24,13,49,9.40
2009,04,24,13,50,9.50
2009,04,24,13,51,9.50
2009,04,24,13,52,9.50
2009,04,24,13,53,9.40
2009,04,24,13,54,9.30
2009,04,24,13,55,9.40
2009,04,24,13,56,9.50
2009,04,24,13,57,9.70
2009,04,24,13,58,9.80
2009,04,24,13,59,9.80
2009,04,24,14,00,9.80
2009,04,24,14,01,9.90
2009,04,24,14,02,9.90
2009,04,24,14,03,9.80
2009,04,24,14,04,9.90
2009,04,24,14,05,9.90
2009,04,24,14,06,9.90
2009,04,24,14,07,9.90
2009,04,24,14,08,9.90
2009,04,24,14,09,10.00
2009,04,24,14,10,10.10
2009,04,24,14,11,10.20
2009,04,24,14,12,10.40
2009,04,24,14,13,10.40
2009,04,24,14,14,10.40
2009,04,24,14,15,10.50
2009,04,24,14,16,10.60
2009,04,24,14,17,10.50
2009,04,24,14,18,10.40
2009,04,24,14,19,10.50
2009,04,24,14,20,10.60
2009,04,24,14,21,10.70
2009,04,24,14,22,10.80
2009,04,24,14,23,10.80
2009,04,24,14,24,10.80
2009,04,24,14,25,10.80
2009,04,24,14,26,10.80
2009,04,24,14,27,10.80
2009,04,24,14,28,10.90
2009,04,24,14,29,11.00
2009,04,24,14,30,11.10
2009,04,24,14,31,10.90
2009,04,24,14,32,10.80
2009,04,24,14,33,10.70
2009,04,24,14,34,10.60
2009,04,24,14,35,10.60
2009,04,24,14,36,10.50
2009,04,24,14,37,10.40
2009,04,24,14,38,10.50
2009,04,24,14,39,10.70
2009,04,24,14,40,10.80
2009,04,24,14,41,10.90
2009,04,24,14,42,11.00
2009,04,24,14,43,11.10
2009,04,24,14,44,11.20
2009,04,24,14,45,11.40
2009,04,24,14,46,11.40
2009,04,24,14,47,11.20
2009,04,24,14,48,11.20
2009,04,24,14,49,11.20
2009,04,24,14,50,11.10
2009,04,24,14,51,10.90
2009,04,24,14,52,11.00
2009,04,24,14,53,11.10
2009,04,24,14,54,11.10
2009,04,24,14,55,11.10
2009,04,24,14,56,11.10
2009,04,24,14,57,11.20
2009,04,24,14,58,11.30
2009,04,24,14,59,11.40
2009,04,24,15,00,11.60
2009,04,24,15,01,11.60
2009,04,24,15,02,11.50
2009,04,24,15,03,11.40
2009,04,24,15,04,11.30
2009,04,24,15,05,11.30
2009,04,24,15,06,11.40
2009,04,24,15,07,11.40
2009,04,24,15,08,11.30
2009,04,24,15,09,11.40
2009,04,24,15,10,11.40
2009,04,24,15,11,11.60
2009,04,24,15,12,11.60
2009,04,24,15,13,11.50
2009,04,24,15,14,11.50
2009,04,24,15,15,11.60
2009,04,24,15,16,11.60
2009,04,24,15,17,11.60
2009,04,24,15,18,11.50
2009,04,24,15,19,11.50
2009,04,24,15,20,11.60
2009,04,24,15,21,11.50
2009,04,24,15,22,11.40
2009,04,24,15,23,11.40
2009,04,24,15,24,11.40
2009,04,24,15,25,11.60
2009,04,24,15,26,11.70
2009,04,24,15,27,11.80
2009,04,24,15,28,11.80
2009,04,24,15,29,11.80
2009,04,24,15,30,11.90
2009,04,24,15,31,11.80
2009,04,24,15,32,11.70
2009,04,24,15,33,11.60
2009,04,24,15,34,11.60
2009,04,24,15,35,11.60
2009,04,24,15,36,11.60
2009,04,24,15,37,11.60
2009,04,24,15,38,11.50
2009,04,24,15,39,11.40
2009,04,24,15,40,11.40
2009,04,24,15,41,11.40
2009,04,24,15,42,11.40
2009,04,24,15,43,11.50
2009,04,24,15,44,11.40
2009,04,24,15,45,11.40
2009,04,24,15,46,11.30
2009,04,24,15,47,11.20
2009,04,24,15,48,11.10
2009,04,24,15,49,11.00
2009,04,24,15,50,11.10
2009,04,24,15,51,11.20
2009,04,24,15,52,11.30
2009,04,24,15,53,11.40
2009,04,24,15,54,11.40
2009,04,24,15,55,11.40
2009,04,24,15,56,11.50
2009,04,24,15,57,11.60
2009,04,24,15,58,11.70
2009,04,24,15,59,11.70
2009,04,24,16,00,11.60
2009,04,24,16,01,11.60
2009,04,24,16,02,11.40
2009,04,24,16,03,11.30
2009,04,24,16,04,11.30
2009,04,24,16,05,11.40
2009,04,24,16,06,11.40
2009,04,24,16,07,11.40
2009,04,24,16,08,11.40
2009,04,24,16,09,11.40
2009,04,24,16,10,11.40
2009,04,24,16,11,11.40
2009,04,24,16,12,11.50
2009,04,24,16,13,11.80
2009,04,24,16,14,12.00
2009,04,24,16,15,12.20
2009,04,24,16,16,12.40
2009,04,24,16,17,12.40
2009,04,24,16,18,12.50
2009,04,24,16,19,12.60
2009,04,24,16,20,12.80
2009,04,24,16,21,12.90
2009,04,24,16,22,13.00
2009,04,24,16,23,13.10
2009,04,24,16,24,13.20
2009,04,24,16,25,13.40
2009,04,24,16,26,13.50
2009,04,24,16,27,13.70
2009,04,24,16,28,13.90
2009,04,24,16,29,13.90
2009,04,24,16,30,13.90
2009,04,24,16,31,13.80
2009,04,24,16,32,13.60
2009,04,24,16,33,13.50
2009,04,24,16,34,13.50
2009,04,24,16,35,13.40
2009,04,24,16,36,13.60
2009,04,24,16,37,14.00
2009,04,24,16,38,14.30
2009,04,24,16,39,14.80
2009,04,24,16,40,15.10
2009,04,24,16,41,15.40
2009,04,24,16,42,15.60
2009,04,24,16,43,15.80
2009,04,24,16,44,16.00
2009,04,24,16,45,16.10
2009,04,24,16,46,16.30
2009,04,24,16,47,16.40
2009,04,24,16,48,16.50
2009,04,24,16,49,16.60
2009,04,24,16,50,16.60
2009,04,24,16,51,16.60
2009,04,24,16,52,16.60
2009,04,24,16,53,16.60
2009,04,24,16,54,16.70
2009,04,24,16,55,16.70
2009,04,24,16,56,16.70
2009,04,24,16,57,16.70
2009,04,24,16,58,16.70
2009,04,24,16,59,16.80
2009,04,24,17,00,16.90
2009,04,24,17,01,16.90
2009,04,24,17,02,16.90
2009,04,24,17,03,16.90
2009,04,24,17,04,16.70
2009,04,24,17,05,16.60
2009,04,24,17,06,16.40
2009,04,24,17,07,16.40
2009,04,24,17,08,16.40
2009,04,24,17,09,16.40
2009,04,24,17,10,16.40
2009,04,24,17,11,16.40
2009,04,24,17,12,16.40
2009,04,24,17,13,16.40
2009,04,24,17,14,16.40
2009,04,24,17,15,16.40
2009,04,24,17,16,16.50
2009,04,24,17,17,16.60
2009,04,24,17,18,16.40
2009,04,24,17,19,16.40
2009,04,24,17,20,16.30
2009,04,24,17,21,16.30
2009,04,24,17,22,16.30
2009,04,24,17,23,16.30
2009,04,24,17,24,16.30
2009,04,24,17,25,16.30
2009,04,24,17,26,16.30
2009,04,24,17,27,16.30
2009,04,24,17,28,16.30
2009,04,24,17,29,16.30
2009,04,24,17,30,16.20
2009,04,24,17,31,16.20
2009,04,24,17,32,16.20
2009,04,24,17,33,16.20
2009,04,24,17,34,16.20
2009,04,24,17,35,16.20
2009,04,24,17,36,16.20
2009,04,24,17,37,16.10
2009,04,24,17,38,16.00
2009,04,24,17,39,15.90
2009,04,24,17,40,15.90
2009,04,24,17,41,15.90
2009,04,24,17,42,15.90
2009,04,24,17,43,15.90
2009,04,24,17,44,15.90
2009,04,24,17,45,15.90
2009,04,24,17,46,15.90
2009,04,24,17,47,15.90
2009,04,24,17,48,15.80
2009,04,24,17,49,15.70
2009,04,24,17,50,15.70
2009,04,24,17,51,15.70
2009,04,24,17,52,15.70
2009,04,24,17,53,15.60
2009,04,24,17,54,15.50
2009,04,24,17,55,15.50
2009,04,24,17,56,15.40